DELTA 1 DEB, 42655

Orbit data source: Space-Track

DELTA 1 DEB, 42655 is space debris in SSO originally from a launch on Thu, 12 Jun 1975 UTC launched from the Air Force Western Test Range (AFWTR). Debris objects in space refer to the collection of defunct objects orbiting the Earth. Examples of debris include non-operational satellites, rocket bodies, and fragments generated from explosions, collisions, or faulty payload assembly.

Loading next visibility...
Identifier
42655, 1975-052MQ
Orbit
SSO
Country
Flag of USUS
Related business
Manufacturer
Unknown
Mission
Spacecraft
Bus & Motor
Unknown
Mass
Unknown
Launch date (UTC)
1975-06-12 (51 years ago)
Launch vehicle
Unknown
Launch site
Air Force Western Test Range (AFWTR)
Object type
Payload
Rocket body
Debris
Shape & HBR
Unknown shape, 0.1 m
Radar Cross Section
Small (<0.1 m²)

Expand to show TLE details & history
Last TLE update: 1 week ago

TLE from 1 week ago
0 DELTA 1 DEB
1 42655U 75052MQ  26114.66714226 -.00000172  00000-0 -21112-3 0  9991
2 42655  99.5964  99.2562 0568129 230.7093 124.2310 12.98613226588761
Epoch: 2026-04-24T16:00Z
TLE epoch observation values (Epoch: 2026-04-24T16:00:41.091Z)
Latitude
0.00003°
Longitude
6.3884°
Altitude
1,530.712 km
Speed
6.979 km/s
True Right ascension
06h 37m 01s
True Declination
0° 00' 00"
Sunlit
Object was in daylight at epoch
Visualization orbit readout
Latitude
Unknown
Longitude
Unknown
Altitude
Unknown
Speed
Unknown
Apparent Right ascension
Unknown
Apparent Declination
Unknown
Sunlit
N/A
Visualization observer readout
Local Sidereal Time
10:36:15
Azimuth
Unknown
Elevation
Unknown
Doppler factor
Unknown
Orbital elements
Apogee altitude
1,699.103 km
Perigee altitude
830.659 km
Semi-major axis
7,643.018 km
Eccentricity
0.05681
Inclination
99.5964°
RAAN
99.2562°
Arg. of periapsis
230.7093°
True anomaly
129.3995°
Mean anomaly
124.231°
Eccentric anomaly
126.83626°
Mean motion
3.24822 °/min
Orbital period
110.83 mins
BSTAR
-0.00021112
Loading maneuver chart data...
Computing Atmospheric mass density...

Documentation

Showing up to 5 results
|